Regional Weather Roundup
Issued by NWS

Home | Current Version | Previous Version | Graphics & Text | Print | Product List | Glossary On
Versions: 1 2 3 4 5 6 7 8 9 10 11 12 13 14 15 16 17 18 19 20 21 22 23 24 25 26 27 28 29 30 31 32 33 34 35 36 37 38 39 40 41 42 43 44 45 46 47 48 49 50
894
ASUS43 KFSD 201302
RWRSD

WEATHER ROUNDUP FOR SOUTH DAKOTA
NATIONAL WEATHER SERVICE SIOUX FALLS SD
800 AM CDT SUN AUG 20 2017

NOTE: "FAIR" INDICATES FEW OR NO CLOUDS BELOW 12,000 FEET WITH NO
SIGNIFICANT WEATHER AND/OR OBSTRUCTIONS TO VISIBILITY.


SDZ001>005-009-010-012>017-201400-
NORTHWEST AND NORTH CENTRAL SOUTH DAKOTA

CITY           SKY/WX    TMP DP  RH WIND       PRES   REMARKS
BUFFALO          N/A     56  44  64 NE7       30.02R
FAITH            N/A     59  49  69 NE14      30.02R
MOBRIDGE       LGT RAIN  62  51  67 MISG      29.98F
$$

SDZ012>016-024>037-041>051-057-063-072>074-201400-
SOUTHWEST AND SOUTH CENTRAL SOUTH DAKOTA

CITY           SKY/WX    TMP DP  RH WIND       PRES   REMARKS
RAPID CTY ARPT CLEAR     58  48  69 NW10      30.07R
PIERRE         CLOUDY    65  54  67 E5        29.94F
CUSTER         CLEAR     56  42  59 NE10      30.15R
ELLSWORTH AFB  CLEAR     59  48  67 NW8       30.07R
PHILIP         CLOUDY    63  52  67 E3        30.00R
PINE RIDGE     CLEAR     59  51  75 NE5       30.03R
SPEARFISH      FAIR      59  45  58 SE8       30.11R
WINNER         FAIR      66  63  90 NE5       29.97R
$$

SDZ004>011-016>023-039-040-201400-
NORTHEAST SOUTH DAKOTA

CITY           SKY/WX    TMP DP  RH WIND       PRES   REMARKS
ABERDEEN       CLOUDY    63  56  78 N8        29.99R
WATERTOWN      CLOUDY    65  61  87 N16       29.93R
BROOKINGS      MOSUNNY   65  63  93 N8        29.92S
SISSETON         N/A     64  56  75 NW14      29.92S
$$

SDZ017-020-022-023-036>040-048>070-201400-
SOUTHEAST SOUTH DAKOTA

CITY           SKY/WX    TMP DP  RH WIND       PRES   REMARKS
SIOUX FALLS    MOSUNNY   69  65  86 CALM      29.92S
HURON          CLOUDY    66  61  84 N17G23    29.91F
CHAMBERLAIN    MOSUNNY   67  62  82 N9        29.96R
MITCHELL       SUNNY     66  64  93 W3        29.92R FOG
YANKTON        SUNNY     65  63  93 NW5       29.92R
$$

ABBREVIATIONS USED IN REMARKS
   TC - TEMPERATURE IN CELSIUS
  WCI - WIND CHILL INDEX
   HX - HEAT INDEX
  VSB - VISIBILITY





USA.gov is the U.S. government's official web portal to all federal, state and local government web resources and services.